Nautica Digitale Olympic - Sochi 2014
  Sponsor: COLUMBUS YACHTING TRAPANI 

OBSERVATIONS
LATEST DOWNLOAD: 2014/04/18 12:45:13

STATION EFHF/029750
Friday, 18 April 2014, 10:20 UTC

pressure 1014 hPa
temperature 11 °C
dewpoint 0 °C
humidity 46.6%
wind S-9 knots
visibility Good
sky -
weather -

MAIN LOCATIONS

HOURLY DATA

HOTEL RESERVATION

WEATHER REPORT WEATHER REPORT

METEOMAR METEOMAR

WEATHER CHARTS WEATHER CHARTS

WEBCAM WEBCAM



 HELSINKI-MALMI
COUNTRY
FINLAND
     LAT
60.25 N
    LON
25.05 E
    ELEV
28 m
     REGION
-
     PROVINCE
-
     ZONE
-

LATEST 24 HOURS ( 49 OBSERVATIONS )
Observation time
UTC
temperature
C
humidity
%
pressure
hPa
  wind
knots
2014/04/18 10:2011 461014S-9
2014/04/18 09:5010 491014SSW-8
2014/04/18 09:2010 461014S-10
2014/04/18 08:509 531013S-10
2014/04/18 08:208 571013S-9
2014/04/18 07:509 531013SSW-9
2014/04/18 07:208 571012S-10
2014/04/18 06:507 611012S-11
2014/04/18 06:207 611012S-10
2014/04/18 05:506 651011S-9
2014/04/18 05:206 651011SSW-8
2014/04/18 04:506 651011SSW-9
2014/04/18 04:206 651010SSW-6
2014/04/18 03:505 701010S-9
2014/04/18 03:206 601010S-10
2014/04/18 02:506 601009S-7
2014/04/18 02:206 601009S-8
2014/04/18 01:505 651009S-10
2014/04/18 01:205 651009S-10
2014/04/18 00:505 651010S-11
2014/04/18 00:205 651009S-10
2014/04/17 23:505 601009S-11
2014/04/17 23:206 561009S-12
2014/04/17 22:506 601010S-11
2014/04/17 22:206 601010S-10
2014/04/17 21:506 601010S-11
2014/04/17 21:206 601010S-9
2014/04/17 20:505 701011S-8
2014/04/17 20:206 561011SSW-10
2014/04/17 19:506 561011SSW-11
2014/04/17 19:207 521011SSW-12
2014/04/17 18:507 521011SSW-11
2014/04/17 18:207 521012SSW-12
2014/04/17 17:508 531012SSW-13
2014/04/17 17:208 531012SSW-14
2014/04/17 16:508 531012SSW-15
2014/04/17 16:209 491012SSW-13
2014/04/17 15:509 461012SSW-12
2014/04/17 15:209 421013SSW-14
2014/04/17 14:5010 431013SSW-15
2014/04/17 14:2010 431013SSW-14
2014/04/17 13:509 491014SSW-14
2014/04/17 13:209 531014SSW-12
2014/04/17 12:508 571014SSW-15
2014/04/17 12:209 531014SSW-13
2014/04/17 11:509 531015SSW-15
2014/04/17 11:208 571015SSW-14
2014/04/17 10:508 611015SSW-13
2014/04/17 10:208 611015SSW-14
( Previous data )

ARCHIVE   LOCAL FORECASTS   CLIMATE AVERAGES